Cedar City, UT

1:32 AM MDT on July 27, 2017 (GMT -0600)
Cedar City Regional

Weather History for KCDC - October, 2011

Change the Weather History Date:

Monday, October 24, 2011

  Actual Average Record
Temperature  
Mean Temperature 55 °F 47 °F  
Max Temperature 72 °F 62 °F 86 °F (1959)
Min Temperature 38 °F 31 °F 19 °F (1975)
Degree Days  
Heating Degree Days 10 18  
Month to date heating degree days 283 337  
Since 1 July heating degree days 330 480  
Cooling Degree Days 0 0  
Month to date cooling degree days 1 0  
Year to date cooling degree days 612 588  
Growing Degree Days 8 (Base 50)    
Moisture  
Dew Point 26 °F    
Average Humidity 38    
Maximum Humidity 59    
Minimum Humidity 17    
Precipitation  
Precipitation 0.00 in 0.04 in 0.87 in (1971)
Month to date precipitation 0.98 1.02  
Year to date precipitation 13.16 9.22  
Sea Level Pressure  
Sea Level Pressure 30.00 in    
Wind  
Wind Speed 8 mph (SSW)    
Max Wind Speed 23 mph    
Max Gust Speed 31 mph    
Visibility 10 miles    
Events      
T = Trace of Precipitation, MM = Missing Value Source: NWS Daily Summary

Daily Weather History Graph

Daily Weather History Graph

Search for Another Location

Airport or City:

Trip Planner

Search our weather history database for the weather conditions in past years. The results will help you decide how hot, cold, wet, or windy it might be!

Date:

Astronomy

Oct. 24, 2011 Rise Set
Actual Time 7:49 AM MDT 6:43 PM MDT
Civil Twilight 7:22 AM MDT 7:10 PM MDT
Nautical Twilight 6:51 AM MDT 7:40 PM MDT
Astronomical Twilight 6:21 AM MDT 8:11 PM MDT
Moon 5:14 AM MDT (10/24) 5:09 PM MDT (10/24)
Length of Visible Light 11h 47m
Length of Day
10h 54m
Waning Crescent, 7% of the Moon is Illuminated
Oct 24
Waning Crescent
Oct 26
New
Nov 2
First Quarter
Nov 10
Full
Nov 18
Last Quarter

Hourly Weather History & Observations

Time (MDT) Temp. Windchill Dew Point Humidity Pressure Visibility Wind Dir Wind Speed Gust Speed Precip Events Conditions
12:53 AM 43.0 °F 38.8 °F 24.1 °F 47% 30.06 in 10.0 mi South 6.9 mph - N/A   Clear
1:53 AM 46.0 °F - 24.1 °F 42% 30.03 in 10.0 mi Calm Calm - N/A   Clear
4:53 AM 43.0 °F 39.5 °F 25.0 °F 49% 30.00 in 10.0 mi SSE 5.8 mph - N/A   Clear
5:53 AM 46.0 °F 42.5 °F 26.1 °F 46% 29.99 in 10.0 mi SSE 6.9 mph - N/A   Clear
6:53 AM 50.0 °F - 26.6 °F 40% 30.14 in 10.0 mi South 8.1 mph - N/A   Clear
7:53 AM 48.0 °F - 26.1 °F 42% 30.02 in 10.0 mi SSE 6.9 mph - N/A   Clear
8:53 AM 52.0 °F - 28.9 °F 41% 30.04 in 10.0 mi Calm Calm - N/A   Clear
9:53 AM 59.0 °F - 28.0 °F 31% 30.03 in 10.0 mi Calm Calm - N/A   Clear
10:53 AM 64.0 °F - 27.0 °F 25% 30.01 in 10.0 mi SW 9.2 mph - N/A   Clear
11:53 AM 69.1 °F - 28.0 °F 22% 30.01 in 10.0 mi SW 12.7 mph 20.7 mph N/A   Clear
12:53 PM 69.8 °F - 26.6 °F 20% 30.13 in 10.0 mi SSW 12.7 mph 24.2 mph N/A   Clear
1:53 PM 72.0 °F - 26.1 °F 18% 29.95 in 10.0 mi SSW 15.0 mph 21.9 mph N/A   Clear
2:53 PM 72.0 °F - 26.1 °F 18% 29.94 in 10.0 mi SSW 15.0 mph 21.9 mph N/A   Clear
4:53 PM 69.1 °F - 24.1 °F 18% 29.93 in 10.0 mi SSW 19.6 mph 28.8 mph N/A   Clear
5:53 PM 66.0 °F - 24.1 °F 20% 29.92 in 10.0 mi SSW 18.4 mph 26.5 mph N/A   Clear
6:53 PM 60.1 °F - 25.0 °F 26% 29.95 in 10.0 mi SSW 11.5 mph - N/A   Clear
7:53 PM 55.4 °F - 24.8 °F 31% 30.09 in 10.0 mi SW 9.2 mph - N/A   Clear
8:53 PM 54.0 °F - 24.1 °F 31% 29.98 in 10.0 mi SSW 6.9 mph - N/A   Clear
9:53 PM 48.9 °F - 25.0 °F 39% 29.97 in 10.0 mi SSW 6.9 mph - N/A   Clear
10:53 PM 50.0 °F - 25.0 °F 38% 29.96 in 10.0 mi South 3.5 mph - N/A   Clear
11:53 PM 53.1 °F - 26.1 °F 35% 29.92 in 10.0 mi SSW 3.5 mph - N/A   Clear